[Date Prev][Date Next][Thread Prev][Thread Next] - [Date Index][Thread Index][Author Index]
2 Line ISS Keps 12-25
- Subject: [sarex] 2 Line ISS Keps 12-25
- From: "Dave Larsen PhD" <doc@xxxxxxxxxxx>
- Date: Sun, 25 Dec 2005 10:04:54 -0800
ISS
1 25544U 98067A 05359.63206019 .00013527 00000-0 99588-4 0 216
2 25544 051.6451 359.6843 0010821 078.7533 068.5199 15.73356200405815
----
Via the sarex mailing list at AMSAT.ORG courtesy of AMSAT-NA.
To unsubscribe, send "unsubscribe sarex" to Majordomo@amsat.org
AMSAT Home